Time,TemperatureF,DewpointF,PressureIn,WindDirection,WindDirectionDegrees,WindSpeedMPH,WindSpeedGustMPH,Humidity,HourlyPrecipIn,Conditions,Clouds,dailyrainin,SoftwareType,DateUTC
2013-01-09 00:04:00,27.1,25.1,30.18,SSE,167,0.0,3.1,92,0.00,,---,0.00,VWS V14.01,2013-01-08 23:04:00,
2013-01-09 00:09:00,27.1,25.1,30.18,SSE,167,0.0,0.0,92,0.00,,---,0.00,VWS V14.01,2013-01-08 23:09:00,
2013-01-09 00:14:00,27.1,25.1,30.18,SSE,167,2.7,3.6,92,0.00,,---,0.00,VWS V14.01,2013-01-08 23:14:00,
2013-01-09 00:19:00,27.1,25.1,30.18,South,169,0.0,2.7,92,0.00,,---,0.00,VWS V14.01,2013-01-08 23:19:00,
2013-01-09 00:24:00,27.1,25.4,30.18,South,171,0.0,2.7,93,0.00,,---,0.00,VWS V14.01,2013-01-08 23:24:00,
2013-01-09 00:29:00,27.3,25.6,30.18,South,171,0.0,3.1,93,0.00,,---,0.00,VWS V14.01,2013-01-08 23:29:00,
2013-01-09 00:34:00,27.3,25.6,30.18,South,171,0.0,0.0,93,0.00,,---,0.00,VWS V14.01,2013-01-08 23:34:00,
2013-01-09 00:39:00,27.3,25.6,30.18,South,171,0.0,2.7,93,0.00,,---,0.00,VWS V14.01,2013-01-08 23:39:00,
2013-01-09 00:44:00,27.3,25.6,30.18,South,171,2.7,3.1,93,0.00,,---,0.00,VWS V14.01,2013-01-08 23:44:00,
2013-01-09 00:49:00,27.3,25.6,30.18,South,171,4.5,4.5,93,0.00,,---,0.00,VWS V14.01,2013-01-08 23:49:00,
2013-01-09 00:54:00,27.3,25.6,30.18,South,172,3.1,3.6,93,0.00,,---,0.00,VWS V14.01,2013-01-08 23:54:00,
2013-01-09 00:59:00,27.5,25.8,30.18,South,172,2.7,2.7,93,0.00,,---,0.00,VWS V14.01,2013-01-08 23:59:00,
2013-01-09 01:04:00,27.5,25.8,30.18,South,173,2.7,2.7,93,0.00,,---,0.00,VWS V14.01,2013-01-09 00:04:00,
2013-01-09 01:09:00,27.5,25.8,30.18,South,173,2.7,3.1,93,0.00,,---,0.00,VWS V14.01,2013-01-09 00:09:00,
2013-01-09 01:14:00,27.5,26.0,30.18,South,173,2.7,4.0,94,0.00,,---,0.00,VWS V14.01,2013-01-09 00:14:00,
2013-01-09 01:19:00,27.5,25.8,30.18,South,173,3.6,4.0,93,0.00,,---,0.00,VWS V14.01,2013-01-09 00:19:00,
2013-01-09 01:24:00,27.5,25.8,30.15,SSE,166,3.6,4.9,93,0.00,,---,0.00,VWS V14.01,2013-01-09 00:24:00,
2013-01-09 01:29:00,27.5,25.8,30.15,SSE,167,0.0,3.6,93,0.00,,---,0.00,VWS V14.01,2013-01-09 00:29:00,
2013-01-09 01:34:00,27.7,25.9,30.15,SSE,167,3.1,3.1,93,0.00,,---,0.00,VWS V14.01,2013-01-09 00:34:00,
2013-01-09 01:39:00,27.7,26.2,30.15,SSE,168,0.0,4.0,94,0.00,,---,0.00,VWS V14.01,2013-01-09 00:39:00,
2013-01-09 01:44:00,27.7,26.2,30.15,South,169,4.0,4.0,94,0.00,,---,0.00,VWS V14.01,2013-01-09 00:44:00,
2013-01-09 01:49:00,27.9,26.4,30.15,South,169,3.6,3.6,94,0.00,,---,0.00,VWS V14.01,2013-01-09 00:49:00,
2013-01-09 01:54:00,27.9,26.4,30.15,South,169,2.7,4.0,94,0.00,,---,0.00,VWS V14.01,2013-01-09 00:54:00,
2013-01-09 01:59:00,27.9,26.4,30.15,South,169,3.6,4.5,94,0.00,,---,0.00,VWS V14.01,2013-01-09 00:59:00,
2013-01-09 02:04:00,27.9,26.4,30.15,South,171,4.5,4.5,94,0.00,,---,0.00,VWS V14.01,2013-01-09 01:04:00,
2013-01-09 02:09:00,27.9,26.4,30.15,South,171,3.1,3.6,94,0.00,,---,0.00,VWS V14.01,2013-01-09 01:09:00,
2013-01-09 02:14:00,28.0,26.5,30.15,South,171,4.0,4.0,94,0.00,,---,0.00,VWS V14.01,2013-01-09 01:14:00,
2013-01-09 02:19:00,28.0,26.5,30.15,South,170,3.6,5.8,94,0.00,,---,0.00,VWS V14.01,2013-01-09 01:19:00,
2013-01-09 02:24:00,28.0,26.5,30.15,South,175,3.1,4.0,94,0.00,,---,0.00,VWS V14.01,2013-01-09 01:24:00,
2013-01-09 02:29:00,28.0,26.5,30.15,South,175,0.0,3.6,94,0.00,,---,0.00,VWS V14.01,2013-01-09 01:29:00,
2013-01-09 02:34:00,28.0,26.5,30.15,South,175,4.9,4.9,94,0.00,,---,0.00,VWS V14.01,2013-01-09 01:34:00,
2013-01-09 02:39:00,28.0,26.8,30.15,South,175,4.0,4.9,95,0.00,,---,0.00,VWS V14.01,2013-01-09 01:39:00,
2013-01-09 02:44:00,28.0,26.8,30.15,South,175,4.9,4.9,95,0.00,,---,0.00,VWS V14.01,2013-01-09 01:44:00,
2013-01-09 02:49:00,28.0,26.8,30.15,South,175,4.0,4.0,95,0.00,,---,0.00,VWS V14.01,2013-01-09 01:49:00,
2013-01-09 02:54:00,28.2,27.0,30.15,South,175,3.6,4.9,95,0.00,,---,0.00,VWS V14.01,2013-01-09 01:54:00,
2013-01-09 02:59:00,28.2,27.0,30.15,South,175,4.0,5.8,95,0.00,,---,0.00,VWS V14.01,2013-01-09 01:59:00,
2013-01-09 03:04:00,28.2,27.0,30.15,South,175,4.9,4.9,95,0.00,,---,0.00,VWS V14.01,2013-01-09 02:04:00,
2013-01-09 03:09:00,28.2,27.0,30.15,South,175,0.0,4.5,95,0.00,,---,0.00,VWS V14.01,2013-01-09 02:09:00,
2013-01-09 03:14:00,28.4,27.1,30.15,South,175,2.7,4.0,95,0.00,,---,0.00,VWS V14.01,2013-01-09 02:14:00,
2013-01-09 03:19:00,28.4,27.1,30.15,South,175,0.0,2.7,95,0.00,,---,0.00,VWS V14.01,2013-01-09 02:19:00,
2013-01-09 03:24:00,28.4,27.1,30.15,South,175,3.6,3.6,95,0.00,,---,0.00,VWS V14.01,2013-01-09 02:24:00,
2013-01-09 03:29:00,28.6,27.3,30.15,South,175,0.0,3.6,95,0.00,,---,0.00,VWS V14.01,2013-01-09 02:29:00,
2013-01-09 03:34:00,28.6,27.3,30.15,South,175,0.0,0.0,95,0.00,,---,0.00,VWS V14.01,2013-01-09 02:34:00,
2013-01-09 03:39:00,28.6,27.3,30.15,South,175,2.7,3.1,95,0.00,,---,0.00,VWS V14.01,2013-01-09 02:39:00,
2013-01-09 03:44:00,28.6,27.3,30.15,South,175,3.1,3.1,95,0.00,,---,0.00,VWS V14.01,2013-01-09 02:44:00,
2013-01-09 03:49:00,28.6,27.3,30.15,South,175,3.6,3.6,95,0.00,,---,0.00,VWS V14.01,2013-01-09 02:49:00,
2013-01-09 03:54:00,28.6,27.3,30.12,South,175,0.0,2.7,95,0.00,,---,0.00,VWS V14.01,2013-01-09 02:54:00,
2013-01-09 03:59:00,28.6,27.3,30.12,South,175,0.0,0.0,95,0.00,,---,0.00,VWS V14.01,2013-01-09 02:59:00,
2013-01-09 04:04:00,28.8,27.5,30.12,South,175,0.0,4.0,95,0.00,,---,0.00,VWS V14.01,2013-01-09 03:04:00,
2013-01-09 04:09:00,28.8,27.5,30.12,South,175,0.0,2.7,95,0.00,,---,0.00,VWS V14.01,2013-01-09 03:09:00,
2013-01-09 04:14:00,28.8,27.5,30.12,South,175,0.0,3.6,95,0.00,,---,0.00,VWS V14.01,2013-01-09 03:14:00,
2013-01-09 04:19:00,28.8,27.8,30.12,South,175,0.0,0.0,96,0.00,,---,0.00,VWS V14.01,2013-01-09 03:19:00,
2013-01-09 04:25:00,28.8,27.8,30.12,South,175,0.0,3.1,96,0.00,,---,0.00,VWS V14.01,2013-01-09 03:25:00,
2013-01-09 04:29:00,28.8,27.8,30.12,South,175,0.0,0.0,96,0.00,,---,0.00,VWS V14.01,2013-01-09 03:29:00,
2013-01-09 04:35:00,28.8,27.8,30.12,South,175,0.0,0.0,96,0.00,,---,0.00,VWS V14.01,2013-01-09 03:35:00,
2013-01-09 04:40:00,28.9,27.9,30.12,South,175,0.0,0.0,96,0.00,,---,0.00,VWS V14.01,2013-01-09 03:40:00,
2013-01-09 04:44:00,28.8,27.8,30.12,South,175,0.0,3.6,96,0.00,,---,0.00,VWS V14.01,2013-01-09 03:44:00,
2013-01-09 04:49:00,28.8,27.5,30.12,South,175,0.0,3.1,95,0.00,,---,0.00,VWS V14.01,2013-01-09 03:49:00,
2013-01-09 04:55:00,28.8,27.5,30.12,South,175,0.0,3.1,95,0.00,,---,0.00,VWS V14.01,2013-01-09 03:55:00,
2013-01-09 04:59:00,28.8,27.5,30.12,South,175,0.0,0.0,95,0.00,,---,0.00,VWS V14.01,2013-01-09 03:59:00,
2013-01-09 05:04:00,28.8,27.8,30.12,South,175,0.0,0.0,96,0.00,,---,0.00,VWS V14.01,2013-01-09 04:04:00,
2013-01-09 05:09:00,28.8,27.8,30.12,South,175,3.6,4.0,96,0.00,,---,0.00,VWS V14.01,2013-01-09 04:09:00,
2013-01-09 05:15:00,28.8,27.8,30.12,South,175,3.1,3.6,96,0.00,,---,0.00,VWS V14.01,2013-01-09 04:15:00,
2013-01-09 05:20:00,28.6,27.6,30.12,SSE,147,5.8,5.8,96,0.00,,---,0.00,VWS V14.01,2013-01-09 04:20:00,
2013-01-09 05:25:00,28.4,27.1,30.12,SSE,147,4.9,5.4,95,0.00,,---,0.00,VWS V14.01,2013-01-09 04:25:00,
2013-01-09 05:30:00,28.4,27.1,30.12,SE,130,4.0,5.8,95,0.00,,---,0.00,VWS V14.01,2013-01-09 04:30:00,
2013-01-09 05:35:00,28.4,27.1,30.12,SSE,148,4.0,5.4,95,0.00,,---,0.00,VWS V14.01,2013-01-09 04:35:00,
2013-01-09 05:40:00,28.4,27.4,30.12,SSE,158,4.5,7.4,96,0.00,,---,0.00,VWS V14.01,2013-01-09 04:40:00,
2013-01-09 05:45:00,28.4,27.4,30.12,SSE,154,3.6,5.4,96,0.00,,---,0.00,VWS V14.01,2013-01-09 04:45:00,
2013-01-09 05:49:00,28.4,27.4,30.12,SSE,151,5.4,5.4,96,0.00,,---,0.00,VWS V14.01,2013-01-09 04:49:00,
2013-01-09 05:55:00,28.6,27.6,30.12,ESE,119,4.5,4.9,96,0.00,,---,0.00,VWS V14.01,2013-01-09 04:55:00,
2013-01-09 06:00:00,28.6,27.6,30.12,SSE,157,4.0,5.4,96,0.00,,---,0.00,VWS V14.01,2013-01-09 05:00:00,
2013-01-09 06:01:00,28.6,27.6,30.12,SSE,158,4.5,4.9,96,0.00,,---,0.00,VWS V14.01,2013-01-09 05:01:00,
2013-01-09 06:02:00,28.6,27.6,30.12,SE,137,4.5,6.7,96,0.00,,---,0.00,VWS V14.01,2013-01-09 05:02:00,
2013-01-09 06:08:00,28.6,27.6,30.12,SE,138,0.0,4.0,96,0.00,,---,0.00,VWS V14.01,2013-01-09 05:08:00,
2013-01-09 06:13:00,28.8,27.8,30.12,SE,130,4.9,6.7,96,0.00,,---,0.00,VWS V14.01,2013-01-09 05:13:00,
2013-01-09 06:18:00,28.6,27.6,30.12,SSE,149,4.9,6.9,96,0.00,,---,0.00,VWS V14.01,2013-01-09 05:18:00,
2013-01-09 06:23:00,28.6,27.6,30.12,SSE,158,0.0,0.0,96,0.00,,---,0.00,VWS V14.01,2013-01-09 05:23:00,
2013-01-09 06:28:00,28.8,27.8,30.12,SSE,158,0.0,3.1,96,0.00,,---,0.00,VWS V14.01,2013-01-09 05:28:00,
2013-01-09 06:33:00,28.8,27.8,30.12,SSE,158,0.0,0.0,96,0.00,,---,0.00,VWS V14.01,2013-01-09 05:33:00,
2013-01-09 06:38:00,28.9,27.9,30.15,SSE,158,0.0,0.0,96,0.00,,---,0.00,VWS V14.01,2013-01-09 05:38:00,
2013-01-09 06:43:00,28.8,27.8,30.15,SSE,158,0.0,2.7,96,0.00,,---,0.00,VWS V14.01,2013-01-09 05:43:00,
2013-01-09 06:48:00,28.8,27.8,30.15,SSE,158,0.0,3.1,96,0.00,,---,0.00,VWS V14.01,2013-01-09 05:48:00,
2013-01-09 06:53:00,28.8,27.8,30.15,SSE,158,4.0,4.5,96,0.00,,---,0.00,VWS V14.01,2013-01-09 05:53:00,
2013-01-09 06:58:00,28.6,27.6,30.15,SSE,159,3.6,5.4,96,0.00,,---,0.00,VWS V14.01,2013-01-09 05:58:00,
2013-01-09 07:03:00,28.4,27.4,30.15,SSE,150,6.9,7.4,96,0.00,,---,0.00,VWS V14.01,2013-01-09 06:03:00,
2013-01-09 07:08:00,28.2,27.2,30.15,SSE,155,4.0,5.4,96,0.00,,---,0.00,VWS V14.01,2013-01-09 06:08:00,
2013-01-09 07:13:00,28.0,27.0,30.15,SSE,160,5.4,5.4,96,0.00,,---,0.00,VWS V14.01,2013-01-09 06:13:00,
2013-01-09 07:18:00,28.0,27.0,30.15,SSE,161,0.0,0.0,96,0.00,,---,0.00,VWS V14.01,2013-01-09 06:18:00,
2013-01-09 07:23:00,28.2,27.2,30.15,SSE,166,4.9,5.8,96,0.00,,---,0.00,VWS V14.01,2013-01-09 06:23:00,
2013-01-09 07:28:00,28.2,27.2,30.15,SSE,166,4.0,5.4,96,0.00,,---,0.00,VWS V14.01,2013-01-09 06:28:00,
2013-01-09 07:33:00,28.2,27.2,30.15,SE,138,4.5,7.8,96,0.00,,---,0.00,VWS V14.01,2013-01-09 06:33:00,
2013-01-09 07:37:00,28.0,27.0,30.15,SSE,150,3.6,5.8,96,0.00,,---,0.00,VWS V14.01,2013-01-09 06:37:00,
2013-01-09 07:42:00,28.0,27.0,30.15,SSE,166,3.6,5.4,96,0.00,,---,0.00,VWS V14.01,2013-01-09 06:42:00,
2013-01-09 07:47:00,28.0,27.0,30.15,SSE,166,4.5,5.4,96,0.00,,---,0.00,VWS V14.01,2013-01-09 06:47:00,
2013-01-09 07:52:00,28.0,26.8,30.15,South,173,4.9,5.4,95,0.00,,---,0.00,VWS V14.01,2013-01-09 06:52:00,
2013-01-09 07:58:00,27.9,26.6,30.15,SSE,157,5.4,6.9,95,0.00,,---,0.00,VWS V14.01,2013-01-09 06:58:00,
2013-01-09 08:03:00,27.7,26.4,30.15,South,171,3.6,5.4,95,0.00,,---,0.00,VWS V14.01,2013-01-09 07:03:00,
2013-01-09 08:08:00,27.7,26.4,30.15,SE,127,3.6,3.6,95,0.00,,---,0.00,VWS V14.01,2013-01-09 07:08:00,
2013-01-09 08:13:00,27.7,26.4,30.15,SE,127,0.0,4.0,95,0.00,,---,0.00,VWS V14.01,2013-01-09 07:13:00,
2013-01-09 08:18:00,27.7,26.4,30.15,SE,127,4.0,4.5,95,0.00,,---,0.00,VWS V14.01,2013-01-09 07:18:00,
2013-01-09 08:23:00,27.9,26.6,30.15,SSE,162,3.6,6.3,95,0.00,,---,0.00,VWS V14.01,2013-01-09 07:23:00,
2013-01-09 08:28:00,27.7,26.4,30.15,SSE,162,5.8,6.9,95,0.00,,---,0.00,VWS V14.01,2013-01-09 07:28:00,
2013-01-09 08:33:00,27.7,26.4,30.15,SSE,166,4.5,6.3,95,0.00,,---,0.00,VWS V14.01,2013-01-09 07:33:00,
2013-01-09 08:38:00,27.5,26.3,30.15,South,170,7.8,7.8,95,0.00,,---,0.00,VWS V14.01,2013-01-09 07:38:00,
2013-01-09 08:43:00,27.3,26.1,30.15,South,171,4.9,5.8,95,0.00,,---,0.00,VWS V14.01,2013-01-09 07:43:00,
2013-01-09 08:48:00,27.3,26.1,30.15,SSE,162,5.4,5.8,95,0.00,,---,0.00,VWS V14.01,2013-01-09 07:48:00,
2013-01-09 08:52:00,27.1,25.9,30.18,SSE,164,4.5,6.3,95,0.00,,---,0.00,VWS V14.01,2013-01-09 07:52:00,
2013-01-09 08:57:00,27.1,25.9,30.18,South,171,4.9,5.4,95,0.00,,---,0.00,VWS V14.01,2013-01-09 07:57:00,
2013-01-09 09:02:00,27.3,26.1,30.18,South,171,3.1,3.6,95,0.00,,---,0.00,VWS V14.01,2013-01-09 08:02:00,
2013-01-09 09:07:00,27.3,26.1,30.18,South,171,0.0,3.1,95,0.00,,---,0.00,VWS V14.01,2013-01-09 08:07:00,
2013-01-09 09:12:00,27.5,26.3,30.18,South,171,4.0,5.4,95,0.00,,---,0.00,VWS V14.01,2013-01-09 08:12:00,
2013-01-09 09:17:00,27.5,26.3,30.18,South,171,4.5,6.3,95,0.00,,---,0.00,VWS V14.01,2013-01-09 08:17:00,
2013-01-09 09:22:00,27.3,26.1,30.18,South,171,5.4,6.3,95,0.00,,---,0.00,VWS V14.01,2013-01-09 08:22:00,
2013-01-09 09:27:00,27.3,26.1,30.18,South,171,3.6,4.5,95,0.00,,---,0.00,VWS V14.01,2013-01-09 08:27:00,
2013-01-09 09:32:00,27.3,26.1,30.18,South,171,4.5,4.9,95,0.00,,---,0.00,VWS V14.01,2013-01-09 08:32:00,
2013-01-09 09:37:00,27.1,25.9,30.18,South,171,0.0,2.7,95,0.00,,---,0.00,VWS V14.01,2013-01-09 08:37:00,
2013-01-09 09:42:00,27.3,26.1,30.18,South,171,3.6,4.5,95,0.00,,---,0.00,VWS V14.01,2013-01-09 08:42:00,
2013-01-09 09:47:00,27.3,26.1,30.18,South,171,2.7,2.7,95,0.00,,---,0.00,VWS V14.01,2013-01-09 08:47:00,
2013-01-09 09:52:00,27.3,26.1,30.18,South,171,4.0,4.5,95,0.00,,---,0.00,VWS V14.01,2013-01-09 08:52:00,
2013-01-09 09:57:00,27.3,26.1,30.18,South,171,0.0,4.0,95,0.00,,---,0.00,VWS V14.01,2013-01-09 08:57:00,
2013-01-09 10:03:00,27.3,26.1,30.18,SSE,159,5.8,6.3,95,0.00,,---,0.00,VWS V14.01,2013-01-09 09:03:00,
2013-01-09 10:08:00,27.3,26.1,30.18,SSE,159,4.0,4.9,95,0.00,,---,0.00,VWS V14.01,2013-01-09 09:08:00,
2013-01-09 10:13:00,27.5,26.3,30.18,SSE,159,2.7,2.7,95,0.00,,---,0.00,VWS V14.01,2013-01-09 09:13:00,
2013-01-09 10:18:00,27.5,26.3,30.18,SSE,160,4.0,4.0,95,0.00,,---,0.00,VWS V14.01,2013-01-09 09:18:00,
2013-01-09 10:23:00,27.5,26.3,30.18,SSE,160,0.0,0.0,95,0.00,,---,0.00,VWS V14.01,2013-01-09 09:23:00,
2013-01-09 10:28:00,27.3,26.1,30.18,SSE,160,3.6,3.6,95,0.00,,---,0.00,VWS V14.01,2013-01-09 09:28:00,
2013-01-09 10:33:00,27.3,26.1,30.18,SSE,160,4.0,4.0,95,0.00,,---,0.00,VWS V14.01,2013-01-09 09:33:00,
2013-01-09 10:38:00,27.3,26.1,30.18,SSE,160,0.0,0.0,95,0.00,,---,0.00,VWS V14.01,2013-01-09 09:38:00,
2013-01-09 10:43:00,27.5,26.3,30.18,SSE,160,0.0,3.1,95,0.00,,---,0.00,VWS V14.01,2013-01-09 09:43:00,
2013-01-09 10:48:00,27.7,26.2,30.18,WSW,242,2.7,4.0,94,0.00,,---,0.00,VWS V14.01,2013-01-09 09:48:00,
2013-01-09 10:53:00,27.7,26.2,30.18,NW,313,0.0,0.0,94,0.00,,---,0.00,VWS V14.01,2013-01-09 09:53:00,
2013-01-09 10:58:00,27.7,26.2,30.18,NW,314,4.9,4.9,94,0.00,,---,0.00,VWS V14.01,2013-01-09 09:58:00,
2013-01-09 11:03:00,27.5,26.0,30.18,NW,318,4.5,4.9,94,0.00,,---,0.00,VWS V14.01,2013-01-09 10:03:00,
2013-01-09 11:08:00,27.5,26.0,30.18,NNW,337,3.6,4.0,94,0.00,,---,0.00,VWS V14.01,2013-01-09 10:08:00,
2013-01-09 11:13:00,27.5,26.0,30.18,SE,140,5.8,5.8,94,0.00,,---,0.00,VWS V14.01,2013-01-09 10:13:00,
2013-01-09 11:18:00,27.3,25.8,30.18,SE,140,5.8,5.8,94,0.00,,---,0.00,VWS V14.01,2013-01-09 10:18:00,
2013-01-09 11:23:00,27.1,25.6,30.18,WSW,253,0.0,3.1,94,0.00,,---,0.00,VWS V14.01,2013-01-09 10:23:00,
2013-01-09 11:28:00,27.3,25.8,30.18,SSE,152,2.7,2.7,94,0.00,,---,0.00,VWS V14.01,2013-01-09 10:28:00,
2013-01-09 11:33:00,27.3,25.8,30.18,SSE,152,2.7,2.7,94,0.00,,---,0.00,VWS V14.01,2013-01-09 10:33:00,
2013-01-09 11:38:00,27.5,26.0,30.18,SSE,152,0.0,2.7,94,0.00,,---,0.00,VWS V14.01,2013-01-09 10:38:00,
2013-01-09 11:43:00,27.5,26.0,30.18,SSE,152,2.7,3.6,94,0.00,,---,0.00,VWS V14.01,2013-01-09 10:43:00,
2013-01-09 11:48:00,27.7,26.2,30.18,SSE,152,0.0,0.0,94,0.00,,---,0.00,VWS V14.01,2013-01-09 10:48:00,
2013-01-09 11:53:00,27.7,26.2,30.18,SSE,152,4.0,4.9,94,0.00,,---,0.00,VWS V14.01,2013-01-09 10:53:00,
2013-01-09 11:58:00,27.7,26.2,30.18,SSE,152,3.6,3.6,94,0.00,,---,0.00,VWS V14.01,2013-01-09 10:58:00,
2013-01-09 12:03:00,27.9,26.4,30.18,SSE,155,0.0,2.7,94,0.00,,---,0.00,VWS V14.01,2013-01-09 11:03:00,
2013-01-09 12:08:00,28.0,26.5,30.18,SSE,155,4.5,5.4,94,0.00,,---,0.00,VWS V14.01,2013-01-09 11:08:00,
2013-01-09 12:13:00,27.9,26.4,30.18,South,179,0.0,0.0,94,0.00,,---,0.00,VWS V14.01,2013-01-09 11:13:00,
2013-01-09 12:18:00,28.0,26.5,30.18,South,179,0.0,3.1,94,0.00,,---,0.00,VWS V14.01,2013-01-09 11:18:00,
2013-01-09 12:23:00,27.9,26.4,30.18,South,179,3.1,3.1,94,0.00,,---,0.00,VWS V14.01,2013-01-09 11:23:00,
2013-01-09 12:28:00,27.9,26.4,30.18,South,179,0.0,0.0,94,0.00,,---,0.00,VWS V14.01,2013-01-09 11:28:00,
2013-01-09 12:33:00,27.9,26.4,30.18,South,179,2.7,3.1,94,0.00,,---,0.00,VWS V14.01,2013-01-09 11:33:00,
2013-01-09 12:38:00,28.0,26.5,30.18,South,179,4.5,4.9,94,0.00,,---,0.00,VWS V14.01,2013-01-09 11:38:00,
2013-01-09 12:43:00,28.0,26.5,30.18,South,179,3.6,3.6,94,0.00,,---,0.00,VWS V14.01,2013-01-09 11:43:00,
2013-01-09 12:48:00,28.2,26.7,30.18,South,179,0.0,0.0,94,0.00,,---,0.00,VWS V14.01,2013-01-09 11:48:00,
2013-01-09 12:53:00,28.4,27.1,30.18,South,179,0.0,0.0,95,0.00,,---,0.00,VWS V14.01,2013-01-09 11:53:00,
2013-01-09 12:58:00,28.6,27.3,30.18,South,179,0.0,0.0,95,0.00,,---,0.00,VWS V14.01,2013-01-09 11:58:00,
2013-01-09 13:03:00,28.6,27.1,30.18,South,179,0.0,3.1,94,0.00,,---,0.00,VWS V14.01,2013-01-09 12:03:00,
2013-01-09 13:08:00,28.8,27.2,30.18,South,179,2.7,3.6,94,0.00,,---,0.00,VWS V14.01,2013-01-09 12:08:00,
2013-01-09 13:13:00,28.8,27.5,30.18,South,179,0.0,0.0,95,0.00,,---,0.00,VWS V14.01,2013-01-09 12:13:00,
2013-01-09 13:18:00,29.1,27.9,30.18,South,179,0.0,0.0,95,0.00,,---,0.00,VWS V14.01,2013-01-09 12:18:00,
2013-01-09 13:23:00,28.9,27.7,30.18,South,179,0.0,0.0,95,0.00,,---,0.00,VWS V14.01,2013-01-09 12:23:00,
2013-01-09 13:28:00,29.1,27.6,30.18,South,179,0.0,0.0,94,0.00,,---,0.00,VWS V14.01,2013-01-09 12:28:00,
2013-01-09 13:33:00,29.1,27.9,30.18,South,179,0.0,0.0,95,0.00,,---,0.00,VWS V14.01,2013-01-09 12:33:00,
2013-01-09 13:38:00,29.3,27.8,30.18,South,179,0.0,0.0,94,0.00,,---,0.00,VWS V14.01,2013-01-09 12:38:00,
2013-01-09 13:43:00,29.5,28.0,30.18,South,179,0.0,0.0,94,0.00,,---,0.00,VWS V14.01,2013-01-09 12:43:00,
2013-01-09 13:48:00,29.1,27.6,30.18,South,179,0.0,2.7,94,0.00,,---,0.00,VWS V14.01,2013-01-09 12:48:00,
2013-01-09 13:53:00,28.9,27.4,30.18,South,179,3.6,4.5,94,0.00,,---,0.00,VWS V14.01,2013-01-09 12:53:00,
2013-01-09 13:58:00,28.9,27.4,30.18,South,179,3.6,4.5,94,0.00,,---,0.00,VWS V14.01,2013-01-09 12:58:00,
2013-01-09 14:03:00,29.1,27.6,30.18,South,179,2.7,3.1,94,0.00,,---,0.00,VWS V14.01,2013-01-09 13:03:00,
2013-01-09 14:08:00,29.1,27.6,30.18,South,179,0.0,3.6,94,0.00,,---,0.00,VWS V14.01,2013-01-09 13:08:00,
2013-01-09 14:13:00,28.9,27.4,30.18,South,179,4.0,4.5,94,0.00,,---,0.00,VWS V14.01,2013-01-09 13:13:00,
2013-01-09 14:18:00,28.9,27.4,30.18,SSE,151,0.0,6.3,94,0.00,,---,0.00,VWS V14.01,2013-01-09 13:18:00,
2013-01-09 14:23:00,28.9,27.2,30.18,SSE,166,4.5,6.3,93,0.00,,---,0.00,VWS V14.01,2013-01-09 13:23:00,
2013-01-09 14:28:00,28.9,27.2,30.18,SSE,167,3.6,6.3,93,0.00,,---,0.00,VWS V14.01,2013-01-09 13:28:00,
2013-01-09 14:33:00,28.9,27.2,30.18,SSE,168,4.0,4.9,93,0.00,,---,0.00,VWS V14.01,2013-01-09 13:33:00,
2013-01-09 14:38:00,28.9,27.2,30.18,SSE,156,2.7,3.6,93,0.00,,---,0.00,VWS V14.01,2013-01-09 13:38:00,
2013-01-09 14:43:00,28.9,27.2,30.18,SSE,156,3.6,3.6,93,0.00,,---,0.00,VWS V14.01,2013-01-09 13:43:00,
2013-01-09 14:48:00,29.1,27.1,30.18,SSE,156,3.1,3.1,92,0.00,,---,0.00,VWS V14.01,2013-01-09 13:48:00,
2013-01-09 14:53:00,29.3,27.3,30.18,SSE,156,0.0,4.0,92,0.00,,---,0.00,VWS V14.01,2013-01-09 13:53:00,
2013-01-09 14:58:00,29.5,27.5,30.18,SSE,165,5.4,5.4,92,0.00,,---,0.00,VWS V14.01,2013-01-09 13:58:00,
2013-01-09 15:03:00,29.3,27.0,30.18,South,169,2.7,4.9,91,0.00,,---,0.00,VWS V14.01,2013-01-09 14:03:00,
2013-01-09 15:08:00,29.1,26.8,30.18,South,169,4.9,4.9,91,0.00,,---,0.00,VWS V14.01,2013-01-09 14:08:00,
2013-01-09 15:13:00,28.9,26.6,30.18,South,169,2.7,4.9,91,0.00,,---,0.00,VWS V14.01,2013-01-09 14:13:00,
2013-01-09 15:18:00,28.9,26.4,30.18,South,169,2.7,4.0,90,0.00,,---,0.00,VWS V14.01,2013-01-09 14:18:00,
2013-01-09 15:23:00,29.1,26.6,30.18,South,169,0.0,3.1,90,0.00,,---,0.00,VWS V14.01,2013-01-09 14:23:00,
2013-01-09 15:28:00,29.3,26.7,30.18,South,169,0.0,0.0,90,0.00,,---,0.00,VWS V14.01,2013-01-09 14:28:00,
2013-01-09 15:33:00,29.1,26.6,30.18,South,169,4.0,4.0,90,0.00,,---,0.00,VWS V14.01,2013-01-09 14:33:00,
2013-01-09 15:38:00,28.9,26.4,30.18,South,169,2.7,2.7,90,0.00,,---,0.00,VWS V14.01,2013-01-09 14:38:00,
2013-01-09 15:43:00,28.8,26.2,30.18,South,169,4.0,4.0,90,0.00,,---,0.00,VWS V14.01,2013-01-09 14:43:00,
2013-01-09 15:48:00,28.8,25.9,30.18,SSE,148,4.5,6.7,89,0.00,,---,0.00,VWS V14.01,2013-01-09 14:48:00,
2013-01-09 15:53:00,28.6,25.8,30.18,SE,139,4.9,6.3,89,0.00,,---,0.00,VWS V14.01,2013-01-09 14:53:00,
2013-01-09 15:58:00,28.4,25.6,30.18,SSE,157,5.8,7.8,89,0.00,,---,0.00,VWS V14.01,2013-01-09 14:58:00,
2013-01-09 16:03:00,28.4,25.6,30.18,ESE,107,3.6,5.8,89,0.00,,---,0.00,VWS V14.01,2013-01-09 15:03:00,
2013-01-09 16:08:00,28.2,25.4,30.18,SSE,161,3.1,6.7,89,0.00,,---,0.00,VWS V14.01,2013-01-09 15:08:00,
2013-01-09 16:13:00,28.2,25.4,30.18,SE,144,5.4,7.8,89,0.00,,---,0.00,VWS V14.01,2013-01-09 15:13:00,
2013-01-09 16:18:00,28.0,25.2,30.18,SSE,150,4.9,7.4,89,0.00,,---,0.00,VWS V14.01,2013-01-09 15:18:00,
2013-01-09 16:23:00,27.9,24.8,30.21,SSE,148,3.1,9.2,88,0.00,,---,0.00,VWS V14.01,2013-01-09 15:23:00,
2013-01-09 16:28:00,28.0,25.0,30.21,SE,142,4.5,7.8,88,0.00,,---,0.00,VWS V14.01,2013-01-09 15:28:00,
2013-01-09 16:33:00,27.9,24.8,30.21,South,170,4.9,7.8,88,0.00,,---,0.00,VWS V14.01,2013-01-09 15:33:00,
2013-01-09 16:38:00,27.9,24.8,30.18,SSE,147,5.8,7.8,88,0.00,,---,0.00,VWS V14.01,2013-01-09 15:38:00,
2013-01-09 16:43:00,27.9,24.8,30.18,SSE,167,5.8,6.9,88,0.00,,---,0.00,VWS V14.01,2013-01-09 15:43:00,
2013-01-09 16:48:00,27.7,24.6,30.18,SSE,164,6.9,11.2,88,0.00,,---,0.00,VWS V14.01,2013-01-09 15:48:00,
2013-01-09 16:53:00,27.3,24.2,30.18,SSE,152,7.4,8.7,88,0.00,,---,0.00,VWS V14.01,2013-01-09 15:53:00,
2013-01-09 16:58:00,27.1,24.1,30.18,South,170,6.3,7.8,88,0.00,,---,0.00,VWS V14.01,2013-01-09 15:58:00,
2013-01-09 17:03:00,27.1,24.1,30.18,South,170,4.0,5.8,88,0.00,,---,0.00,VWS V14.01,2013-01-09 16:03:00,
2013-01-09 17:08:00,27.1,24.1,30.18,SE,137,4.5,6.7,88,0.00,,---,0.00,VWS V14.01,2013-01-09 16:08:00,
2013-01-09 17:13:00,27.1,24.1,30.18,SE,133,4.9,6.7,88,0.00,,---,0.00,VWS V14.01,2013-01-09 16:13:00,
2013-01-09 17:18:00,27.0,23.9,30.18,SSE,166,4.9,6.7,88,0.00,,---,0.00,VWS V14.01,2013-01-09 16:18:00,
2013-01-09 17:23:00,27.1,24.1,30.18,South,169,3.6,6.7,88,0.00,,---,0.00,VWS V14.01,2013-01-09 16:23:00,
2013-01-09 17:28:00,27.0,23.9,30.18,South,171,4.9,6.3,88,0.00,,---,0.00,VWS V14.01,2013-01-09 16:28:00,
2013-01-09 17:33:00,27.0,23.9,30.18,SSE,164,4.9,5.8,88,0.00,,---,0.00,VWS V14.01,2013-01-09 16:33:00,
2013-01-09 17:38:00,27.0,23.9,30.18,SSE,165,0.0,4.9,88,0.00,,---,0.00,VWS V14.01,2013-01-09 16:38:00,
2013-01-09 17:43:00,26.8,23.7,30.18,South,170,5.4,6.7,88,0.00,,---,0.00,VWS V14.01,2013-01-09 16:43:00,
2013-01-09 17:48:00,26.8,23.7,30.18,SSE,161,4.5,6.3,88,0.00,,---,0.00,VWS V14.01,2013-01-09 16:48:00,
2013-01-09 17:53:00,26.8,23.7,30.18,SSE,163,2.7,5.4,88,0.00,,---,0.00,VWS V14.01,2013-01-09 16:53:00,
2013-01-09 17:59:00,27.0,23.9,30.18,SSE,164,0.0,4.5,88,0.00,,---,0.00,VWS V14.01,2013-01-09 16:59:00,
2013-01-09 18:04:00,27.0,23.9,30.18,SSE,165,2.7,3.6,88,0.00,,---,0.00,VWS V14.01,2013-01-09 17:04:00,
2013-01-09 18:09:00,27.0,23.9,30.18,SSE,166,0.0,3.1,88,0.00,,---,0.00,VWS V14.01,2013-01-09 17:09:00,
2013-01-09 18:14:00,27.1,24.1,30.18,SSE,166,2.7,3.1,88,0.00,,---,0.00,VWS V14.01,2013-01-09 17:14:00,
2013-01-09 18:18:00,27.0,23.9,30.18,South,169,3.1,4.0,88,0.00,,---,0.00,VWS V14.01,2013-01-09 17:18:00,
2013-01-09 18:23:00,26.8,23.7,30.18,South,172,4.0,5.8,88,0.00,,---,0.00,VWS V14.01,2013-01-09 17:23:00,
2013-01-09 18:28:00,26.6,23.5,30.18,South,171,4.0,6.3,88,0.00,,---,0.00,VWS V14.01,2013-01-09 17:28:00,
2013-01-09 18:34:00,26.4,23.4,30.18,South,172,0.0,4.9,88,0.00,,---,0.00,VWS V14.01,2013-01-09 17:34:00,
2013-01-09 18:38:00,26.2,23.2,30.18,South,169,5.4,6.9,88,0.00,,---,0.00,VWS V14.01,2013-01-09 17:38:00,
2013-01-09 18:43:00,26.2,23.2,30.18,South,171,5.4,6.9,88,0.00,,---,0.00,VWS V14.01,2013-01-09 17:43:00,
2013-01-09 18:48:00,26.1,23.0,30.18,SSE,163,4.9,6.9,88,0.00,,---,0.00,VWS V14.01,2013-01-09 17:48:00,
2013-01-09 18:53:00,26.1,23.0,30.18,SSE,148,3.1,6.9,88,0.00,,---,0.00,VWS V14.01,2013-01-09 17:53:00,
2013-01-09 18:58:00,25.9,22.8,30.18,SSE,166,3.1,7.4,88,0.00,,---,0.00,VWS V14.01,2013-01-09 17:58:00,
2013-01-09 19:03:00,25.7,22.6,30.18,SSE,158,4.9,6.9,88,0.00,,---,0.00,VWS V14.01,2013-01-09 18:03:00,
2013-01-09 19:08:00,25.7,22.6,30.18,South,173,6.3,6.7,88,0.00,,---,0.00,VWS V14.01,2013-01-09 18:08:00,
2013-01-09 19:13:00,25.7,22.6,30.18,SSE,168,6.7,7.8,88,0.00,,---,0.00,VWS V14.01,2013-01-09 18:13:00,
2013-01-09 19:18:00,25.7,22.9,30.18,South,170,3.1,6.7,89,0.00,,---,0.00,VWS V14.01,2013-01-09 18:18:00,
2013-01-09 19:23:00,25.7,22.9,30.18,SSE,165,3.1,5.4,89,0.00,,---,0.00,VWS V14.01,2013-01-09 18:23:00,
2013-01-09 19:28:00,25.7,22.9,30.18,SSE,166,5.4,5.8,89,0.00,,---,0.00,VWS V14.01,2013-01-09 18:28:00,
2013-01-09 19:33:00,25.7,22.9,30.18,South,172,3.6,5.4,89,0.00,,---,0.00,VWS V14.01,2013-01-09 18:33:00,
2013-01-09 19:38:00,25.9,23.1,30.18,SSE,167,3.6,3.6,89,0.00,,---,0.00,VWS V14.01,2013-01-09 18:38:00,
2013-01-09 19:41:00,25.9,23.1,30.18,SSE,168,3.6,4.0,89,0.00,,---,0.00,VWS V14.01,2013-01-09 18:41:00,
2013-01-09 19:42:00,25.9,23.1,30.18,SSE,168,4.0,4.0,89,0.00,,---,0.00,VWS V14.01,2013-01-09 18:42:00,
2013-01-09 19:44:00,25.9,23.4,30.18,SSE,168,0.0,0.0,90,0.00,,---,0.00,VWS V14.01,2013-01-09 18:44:00,
2013-01-09 19:48:00,26.1,23.5,30.18,SSE,168,3.1,3.1,90,0.00,,---,0.00,VWS V14.01,2013-01-09 18:48:00,
2013-01-09 19:49:00,26.1,23.5,30.18,South,169,3.1,3.1,90,0.00,,---,0.00,VWS V14.01,2013-01-09 18:49:00,
2013-01-09 19:54:00,25.9,23.4,30.18,SSE,166,4.9,4.9,90,0.00,,---,0.00,VWS V14.01,2013-01-09 18:54:00,
2013-01-09 19:59:00,25.7,23.2,30.18,SSE,167,3.1,5.8,90,0.00,,---,0.00,VWS V14.01,2013-01-09 18:59:00,
2013-01-09 20:04:00,25.5,23.0,30.18,South,174,5.8,6.7,90,0.00,,---,0.00,VWS V14.01,2013-01-09 19:04:00,
2013-01-09 20:09:00,25.5,23.0,30.18,South,170,4.5,4.5,90,0.00,,---,0.00,VWS V14.01,2013-01-09 19:09:00,
2013-01-09 20:14:00,25.5,23.0,30.18,SSE,160,8.7,8.7,90,0.00,,---,0.00,VWS V14.01,2013-01-09 19:14:00,
2013-01-09 20:19:00,25.3,22.8,30.18,SSE,167,5.8,5.8,90,0.00,,---,0.00,VWS V14.01,2013-01-09 19:19:00,
2013-01-09 20:24:00,25.2,22.9,30.18,SSE,159,6.9,7.4,91,0.00,,---,0.00,VWS V14.01,2013-01-09 19:24:00,
2013-01-09 20:29:00,25.2,22.9,30.18,SSE,164,9.2,9.2,91,0.00,,---,0.00,VWS V14.01,2013-01-09 19:29:00,
2013-01-09 20:34:00,25.0,22.7,30.18,South,169,6.9,8.7,91,0.00,,---,0.00,VWS V14.01,2013-01-09 19:34:00,
2013-01-09 20:39:00,25.0,22.7,30.18,South,172,2.7,4.9,91,0.00,,---,0.00,VWS V14.01,2013-01-09 19:39:00,
2013-01-09 20:44:00,25.2,22.9,30.18,South,170,4.9,5.4,91,0.00,,---,0.00,VWS V14.01,2013-01-09 19:44:00,
2013-01-09 20:49:00,25.2,22.9,30.18,SSE,162,3.1,4.0,91,0.00,,---,0.00,VWS V14.01,2013-01-09 19:49:00,
2013-01-09 20:54:00,25.2,22.9,30.15,South,169,3.6,5.4,91,0.00,,---,0.00,VWS V14.01,2013-01-09 19:54:00,
2013-01-09 20:59:00,25.2,23.2,30.15,South,173,4.9,5.8,92,0.00,,---,0.00,VWS V14.01,2013-01-09 19:59:00,
2013-01-09 21:04:00,25.2,23.2,30.15,South,172,0.0,4.9,92,0.00,,---,0.00,VWS V14.01,2013-01-09 20:04:00,
2013-01-09 21:09:00,25.3,23.4,30.15,SSE,166,3.1,4.5,92,0.00,,---,0.00,VWS V14.01,2013-01-09 20:09:00,
2013-01-09 21:14:00,25.3,23.4,30.15,South,172,0.0,4.5,92,0.00,,---,0.00,VWS V14.01,2013-01-09 20:14:00,
2013-01-09 21:19:00,25.3,23.4,30.15,South,169,6.9,8.7,92,0.00,,---,0.00,VWS V14.01,2013-01-09 20:19:00,
2013-01-09 21:24:00,25.2,23.2,30.15,SSE,166,7.8,8.7,92,0.00,,---,0.00,VWS V14.01,2013-01-09 20:24:00,
2013-01-09 21:29:00,25.0,23.0,30.15,SSE,165,4.5,7.4,92,0.00,,---,0.00,VWS V14.01,2013-01-09 20:29:00,
2013-01-09 21:34:00,25.0,23.2,30.15,SSE,168,4.9,4.9,93,0.00,,---,0.00,VWS V14.01,2013-01-09 20:34:00,
2013-01-09 21:39:00,25.0,23.2,30.15,South,170,6.7,6.7,93,0.00,,---,0.00,VWS V14.01,2013-01-09 20:39:00,
2013-01-09 21:44:00,25.0,23.2,30.15,South,171,6.3,6.7,93,0.00,,---,0.00,VWS V14.01,2013-01-09 20:44:00,
2013-01-09 21:49:00,24.8,23.1,30.15,SSE,164,4.5,6.7,93,0.00,,---,0.00,VWS V14.01,2013-01-09 20:49:00,
2013-01-09 21:54:00,24.6,22.9,30.15,SSE,168,4.9,8.3,93,0.00,,---,0.00,VWS V14.01,2013-01-09 20:54:00,
2013-01-09 21:59:00,24.6,22.9,30.15,SSE,166,8.7,8.7,93,0.00,,---,0.00,VWS V14.01,2013-01-09 20:59:00,
2013-01-09 22:04:00,24.4,22.7,30.15,SSE,163,7.4,9.6,93,0.00,,---,0.00,VWS V14.01,2013-01-09 21:04:00,
2013-01-09 22:09:00,24.3,22.5,30.12,SSE,167,7.4,8.3,93,0.00,,---,0.00,VWS V14.01,2013-01-09 21:09:00,
2013-01-09 22:14:00,24.3,22.5,30.12,SSE,165,6.3,6.3,93,0.00,,---,0.00,VWS V14.01,2013-01-09 21:14:00,
2013-01-09 22:19:00,24.3,22.5,30.12,South,172,4.5,6.7,93,0.00,,---,0.00,VWS V14.01,2013-01-09 21:19:00,
2013-01-09 22:24:00,24.4,23.0,30.15,South,174,10.1,10.5,94,0.00,,---,0.00,VWS V14.01,2013-01-09 21:24:00,
2013-01-09 22:29:00,24.3,22.8,30.15,South,183,5.8,6.7,94,0.00,,---,0.00,VWS V14.01,2013-01-09 21:29:00,
2013-01-09 22:34:00,24.3,22.8,30.15,South,172,6.7,6.7,94,0.00,,---,0.00,VWS V14.01,2013-01-09 21:34:00,
2013-01-09 22:40:00,24.1,22.6,30.15,SSE,167,7.4,7.4,94,0.00,,---,0.00,VWS V14.01,2013-01-09 21:40:00,
2013-01-09 22:45:00,24.1,22.6,30.15,SSE,154,7.8,8.7,94,0.00,,---,0.00,VWS V14.01,2013-01-09 21:45:00,
2013-01-09 22:50:00,24.1,22.6,30.15,South,169,4.5,5.8,94,0.00,,---,0.00,VWS V14.01,2013-01-09 21:50:00,
2013-01-09 22:55:00,24.1,22.6,30.12,SSE,165,4.0,5.4,94,0.00,,---,0.00,VWS V14.01,2013-01-09 21:55:00,
2013-01-09 23:00:00,24.1,22.9,30.12,SSE,166,5.4,6.3,95,0.00,,---,0.00,VWS V14.01,2013-01-09 22:00:00,
2013-01-09 23:05:00,23.9,22.7,30.12,SSE,164,5.8,6.9,95,0.00,,---,0.00,VWS V14.01,2013-01-09 22:05:00,
2013-01-09 23:10:00,23.9,22.7,30.12,SSE,164,6.7,9.2,95,0.00,,---,0.00,VWS V14.01,2013-01-09 22:10:00,
2013-01-09 23:15:00,23.9,22.7,30.12,SSE,166,3.1,6.9,95,0.00,,---,0.00,VWS V14.01,2013-01-09 22:15:00,
2013-01-09 23:20:00,24.1,22.9,30.12,South,175,3.1,3.1,95,0.00,,---,0.00,VWS V14.01,2013-01-09 22:20:00,
2013-01-09 23:25:00,24.1,22.9,30.12,SSE,148,8.7,10.5,95,0.00,,---,0.00,VWS V14.01,2013-01-09 22:25:00,
2013-01-09 23:30:00,24.1,22.9,30.12,South,169,6.3,6.7,95,0.00,,---,0.00,VWS V14.01,2013-01-09 22:30:00,
2013-01-09 23:35:00,24.1,22.9,30.12,SSE,166,3.6,6.9,95,0.00,,---,0.00,VWS V14.01,2013-01-09 22:35:00,
2013-01-09 23:40:00,24.1,23.1,30.09,SSE,168,6.7,6.9,96,0.00,,---,0.00,VWS V14.01,2013-01-09 22:40:00,
2013-01-09 23:45:00,24.1,23.1,30.09,South,172,6.3,7.4,96,0.00,,---,0.00,VWS V14.01,2013-01-09 22:45:00,
2013-01-09 23:50:00,24.1,23.1,30.09,South,174,6.7,7.4,96,0.00,,---,0.00,VWS V14.01,2013-01-09 22:50:00,
2013-01-09 23:55:00,24.1,23.1,30.09,SSE,158,6.9,9.2,96,0.00,,---,0.00,VWS V14.01,2013-01-09 22:55:00,